• Join FlightAware (Why Join?)
  • Login
  • US Flag 
03:12PM EDT


 

Airport Tracker/Info


-or-


 

Live Flight TrackerFlight Track Log ✈ SKW5524 ✈ 16-Jul-2013 ✈ KDEN - KASE

Flight Track Log - Related Links

Times and Time Zones

All times are in EDT time to prevent confusion due to time zone crossing. See the SKW5524 flight status page for this flight to view local times or setup timezone preferences in your user account.

Time Position Orientation Groundspeed Altitude Reporting Facility
EDT Latitude Longitude Course Direction KTS MPH feet Rate Location/Type
10:33AM 39.8333 -104.7500 255° West 185 213 7,100  Level Denver TRACON
10:34AM 39.8333 -104.8333 270° West 229 264 10,000 2,640 Climbing Denver TRACON
10:35AM 39.7847 -105.0600 255° West  Level FlightAware Approximate
10:35AM 39.8386 -104.9086 275° West 237 273 12,300  Level Denver Center
10:36AM 39.7641 -105.1918 259° West  Level FlightAware Approximate
10:36AM 39.8378 -105.0006 269° West 252 290 15,100  Level Denver Center
10:37AM 39.7500 -105.3244 270° West  Level FlightAware Approximate
10:37AM 39.8181 -105.1033 256° West 274 315 17,700  Level Denver Center
10:38AM 39.7242 -105.4543 255° West  Level FlightAware Approximate
10:38AM 39.7964 -105.2025 254° West 284 327 19,700  Level Denver Center
10:39AM 39.7711 -105.3167 254° West 301 346 22,000 1,080 Climbing Denver Center
10:40AM 39.7461 -105.4406 255° West 357 411 22,000  Level Denver Center
10:41AM 39.7153 -105.5803 254° West 375 432 22,000  Level Denver Center
10:42AM 39.6919 -105.7086 257° West 367 422 22,000  Level Denver Center
10:43AM 39.6797 -105.8456 263° West 348 400 22,000  Level Denver Center
10:44AM 39.6644 -105.9717 261° West 353 406 22,000  Level Denver Center
10:45AM 39.6342 -106.0953 252° West 359 413 22,000  Level Denver Center
10:46AM 39.6117 -106.1886 253° West 357 411 22,000  Level Denver Center
10:47AM 39.5747 -106.3383 252° West 361 415 22,000 -240 Level Denver Center
10:48AM 39.5450 -106.4625 253° West 361 415 21,600 -1,020 Descending Denver Center
10:49AM 39.5089 -106.6108 253° West 356 410 20,000 -1,500 Descending Denver Center
10:50AM 39.4842 -106.7106 252° West 314 361 18,600 -1,800 Descending Denver Center
10:51AM 39.4519 -106.8342 251° West 320 368 16,000 -1,800 Descending Denver Center
10:53AM 39.4108 -106.9236 239° Southwest 299 344 14,600 -1,980 Descending Denver Center
10:54AM 39.3458 -106.9281 183° South 218 251 11,900 -2,640 Descending Denver Center